Find Progress MS-32

NORAD ID: 65586 Int'l Des: 2025-204 Owner: RKKE Country: RU decayed
LEOCIRCULAR

Historical Track — 21. Apr. 2026

3D-Globus wird geladen...

Über Progress MS-32

Beschreibung wird geladen...

Höhenverlauf

Loading altitude history...

Zweizeiliger Elementsatz

1 65586U 25204A 26110.78039753 .00009753 00000-0 18580-3 0 9994
2 65586 51.6325 224.2241 0006702 330.9223 29.1391 15.48857372554502
Epoch: 20. Apr. 2026 • Age: 528 hours

Aktueller Status

Höhe 421.2 km
Geschwindigkeit 7.67 km/s
Subsatellitenpunkt 43.40°N, 88.47°E
Startdatum 11. Sept. 2025
Alter 0.6 years
Verglühungsdatum 21. Apr. 2026
Typ other

Technische Details

Klassifizierung Payload
Masse 4909.00 kg
Trockenmasse 4325.00 kg
Gesamtmasse 7427.00 kg
Länge 7.90 m
Durchmesser 2.70 m
Spannweite 7.90 m
Form Cyl + Sphere + Cone + 2 Pan
Hersteller PROGT
Bus-Typ 7K-TGM
Phasenstatus Docked
Besitzer/Staat RKKE/RU

Most Searched